Simultaneous Nadir Overpasses (SNOs) Predictions

Prediction of SNOs between AQUA and METOP-A Satellite Orbit:

Table of predicted SNOs for the next 14.0 days since TLE Epoch: 3/8/2014
Index Date (AQUA) Time (AQUA) Lat,Lon (AQUA) SZA (AQUA ) Date (METOP-A) Time (METOP-A) Lat,Lon (METOP-A) SZA (METOP-A ) Distance(km) Time Diff (sec)
1 03/10/2014 09:20:34 73.93, 33.95 78.09 03/10/2014 09:19:53 73.91, 33.97 78.08 1.96 41
2 03/10/2014 10:10:01 -74.00,-158.57 101.85 03/10/2014 10:10:33 -74.01,-158.47 101.85 3.02 32
3 03/13/2014 04:54:52 73.90, 100.46 76.94 03/13/2014 04:54:12 73.91, 100.37 76.96 3.15 40
4 03/13/2014 05:44:20 -74.02, -92.17 102.95 03/13/2014 05:44:52 -74.01, -92.06 102.97 3.41 32
5 03/16/2014 00:29:11 73.91, 166.84 75.84 03/16/2014 00:28:31 73.94, 166.86 75.88 3.35 40
6 03/16/2014 01:18:38 -73.98, -25.66 104.11 03/16/2014 01:19:12 -74.00, -25.68 104.09 2.07 34
7 03/18/2014 20:03:29 73.93,-126.77 74.74 03/18/2014 20:02:51 73.92,-126.79 74.73 1.83 38
8 03/18/2014 20:52:56 -74.00, 40.73 105.21 03/18/2014 20:53:32 -73.98, 40.68 105.23 2.81 36
9 03/21/2014 15:37:45 73.96, -60.38 73.64 03/21/2014 15:37:09 73.93, -60.34 73.63 2.88 36
10 03/21/2014 16:27:12 -74.02, 107.12 106.31 03/21/2014 16:27:50 -74.00, 107.14 106.34 2.70 38




NCC Satellite Simultaneous Nadir Overpasses (SNOs) Prediction Service
